Zurück zum Katalog

FENGYUN 1C DEB

AktivPO
NORAD 36160·DEBRIS·🇨🇳 China

Gestartet May 10, 1999 von Taiyuan Satellite Launch Center

Loading…

Nächste Überflüge (nächste 24 Stunden)

TLE

AktuellSource: Space-Track

Epoche: Sep 14, 2026, 06:23 UTC

1 36160U 99025DSH 26257.26657492  .00000266  00000-0  14781-3 0  9992
2 36160  98.1408  79.1727 0135067  74.1673 287.4344 14.13468800639444

Verfolge FENGYUN 1C DEB in Echtzeit mit AllMySat

Download on the App Store